NOAA 16 DEB, 41161

Orbit data source: Space-Track

NOAA 16 DEB, 41161 is space debris in SSO originally from a launch on Thu, 21 Sep 2000 UTC launched from the Air Force Western Test Range (AFWTR). Debris objects in space refer to the collection of defunct objects orbiting the Earth. Examples of debris include non-operational satellites, rocket bodies, and fragments generated from explosions, collisions, or faulty payload assembly.

Loading next visibility...
Identifier
41161, 2000-055CU
Orbit
SSO
Country
Flag of USUS
Related business
Manufacturer
Unknown
Mission
Spacecraft
Bus & Motor
Unknown
Mass
Unknown
Launch date (UTC)
2000-09-21 (25 years ago)
Launch vehicle
Unknown
Launch site
Air Force Western Test Range (AFWTR)
Object type
Payload
Rocket body
Debris
Shape & HBR
Unknown shape, 0.1 m
Radar Cross Section
Small (<0.1 m²)

Expand to show TLE details & history
Last TLE update: 8 hours ago

TLE from 8 hours ago
0 NOAA 16 DEB
1 41161U 00055CU  25291.08448840  .00004479  00000-0  21145-2 0  9997
2 41161  98.6919 337.8122 0038328  80.0644 280.4856 14.19883121508575
Epoch: 2025-10-18T02:01Z
TLE epoch observation values (Epoch: 2025-10-18T02:01:39.797Z)
Latitude
0.00002°
Longitude
-79.42421°
Altitude
823.74 km
Speed
7.444 km/s
True Right ascension
22h 31m 14s
True Declination
0° 00' 00"
Sunlit
Object was in full shadow at epoch
Visualization orbit readout
Latitude
Unknown
Longitude
Unknown
Altitude
Unknown
Speed
Unknown
Apparent Right ascension
Unknown
Apparent Declination
Unknown
Sunlit
N/A
Visualization observer readout
Local Sidereal Time
04:23:42
Azimuth
Unknown
Elevation
Unknown
Doppler factor
Unknown
Orbital elements
Apogee altitude
850.506 km
Perigee altitude
795.306 km
Semi-major axis
7,201.043 km
Eccentricity
0.00383
Inclination
98.6919°
RAAN
337.8122°
Arg. of periapsis
80.0644°
True anomaly
280.05336°
Mean anomaly
280.4856°
Eccentric anomaly
280.26951°
Mean motion
3.55181 °/min
Orbital period
101.36 mins
BSTAR
0.0021145
Loading maneuver chart data...
Computing Atmospheric mass density...
Loading historical data...
Loading historical data...
Loading historical data...
Loading historical data...
Loading historical data...
Loading historical data...
Loading historical data...

Documentation

Showing up to 5 results
|